This is the latest recevied weather packets stored in our database for station/object KD9YTS-13. If no packets are shown the sender has not sent any weather packets the latest 10 day(s).
| Time | Temp. | Humidity | Pressure | Rain* | Wind** | Luminosity | Snow |
|---|---|---|---|---|---|---|---|
| 1777512983 | -17.78° C | 100% | - | 0 mm | - | - | - |
| 1777511782 | 7.78° C | 4% | - | 0 mm | - | - | - |
| 1777510582 | 8.33° C | 4% | - | 0 mm | - | - | - |
| 1777509382 | -17.78° C | 100% | - | 0 mm | - | - | - |
| 1777506984 | -17.78° C | 100% | - | 0 mm | - | - | - |
| 1777505782 | 10.56° C | 4% | - | 0 mm | - | - | - |
| 1777504582 | -17.78° C | 100% | - | 0.25 mm | - | - | - |
| 1777503383 | -17.78° C | 100% | - | 0.25 mm | - | - | - |
| 1777502183 | -17.78° C | 100% | - | 0.25 mm | - | - | - |
| 1777500982 | -17.78° C | 100% | - | 0 mm | - | - | - |
| 1777499782 | 10.56° C | 6% | - | 0 mm | - | - | - |
| 1777498582 | -17.78° C | 100% | - | 0.76 mm | - | - | - |
| 1777497383 | -17.78° C | 100% | - | 0.76 mm | - | - | - |
| 1777496182 | -17.78° C | 100% | - | 0.76 mm | - | - | - |
| 1777494983 | 8.89° C | 7% | - | 0 mm | - | - | - |
| 1777493782 | 7.78° C | 7% | - | 0.25 mm | - | - | - |
| 1777492582 | -17.78° C | 100% | - | 0.51 mm | - | - | - |
| 1777491382 | -17.78° C | 100% | - | 0.76 mm | - | - | - |
| 1777490182 | -17.78° C | 100% | - | 1.02 mm | - | - | - |
| 1777488982 | 5.56° C | 9% | - | 1.02 mm | - | - | - |
| 1777487782 | 5.56° C | 9% | - | 1.02 mm | - | - | - |
| 1777486582 | -17.78° C | 100% | - | 1.02 mm | - | - | - |
| 1777485384 | 5.56° C | 9% | - | 0.76 mm | - | - | - |
| 1777484182 | -17.78° C | 100% | - | 0.51 mm | - | - | - |
| 1777482983 | 6.11° C | 8% | - | 0.51 mm | - | - | - |
* Rain latest hour (hover to see other rain measurements)
** Current wind speed in m/s (hover to see current wind gust speed)